CW2840 Weather Reports


time (UTC)temp
C
wind
direction
speed
KPH
gust
KPH
rain 1hr
cm
rain 24hr
cm
rain mn
cm
humidity
%
barometer
mb
20260831124142 25 165 1.6 4.8 0.00 0.00 0.00 87 1016.2
20260831122641 25 166 1.6 4.8 0.00 0.00 0.00 87 1015.9
20260831121842 25 165 0.0 3.2 0.00 0.00 0.00 87 1015.7
20260831115644 25 166 0.0 3.2 0.00 0.00 0.00 87 1015.5
20260831114140 25 165 0.0 3.2 0.00 0.00 0.00 87 1015.4
20260831112641 25 165 0.0 3.2 0.00 0.00 0.00 87 1015.4
20260831111140 25 165 0.0 3.2 0.00 0.00 0.00 86 1015.4
20260831110340 25 165 0.0 0.0 0.00 0.00 0.00 86 1015.3
20260831104139 25 166 0.0 0.0 0.00 0.00 0.00 86 1015.2
20260831102640 25 165 0.0 3.2 0.00 0.00 0.00 85 1015.0
20260831101139 25 166 0.0 3.2 0.00 0.00 0.00 85 1015.4
20260831095639 25 165 0.0 0.0 0.00 0.00 0.00 85 1015.4
20260831094138 25 166 0.0 0.0 0.00 0.00 0.00 85 1015.3
20260831092638 25 166 0.0 0.0 0.00 0.00 0.00 84 1015.2
20260831091138 26 166 0.0 0.0 0.00 0.00 0.00 84 1015.2
20260831085638 26 166 0.0 0.0 0.00 0.00 0.00 83 1015.2
20260831084137 26 166 0.0 0.0 0.00 0.00 0.00 83 1015.2
20260831083336 26 165 0.0 0.0 0.00 0.00 0.00 82 1015.3
20260831081136 26 166 0.0 3.2 0.00 0.00 0.00 81 1015.3
20260831075636 26 166 0.0 0.0 0.00 0.00 0.00 80 1015.3
20260831074135 27 166 0.0 3.2 0.00 0.00 0.00 79 1015.5
20260831072634 27 166 1.6 4.8 0.00 0.00 0.00 79 1015.5
20260831071132 27 165 0.0 3.2 0.00 0.00 0.00 78 1015.5
20260831071025 27 165 0.0 4.8 0.00 0.00 0.00 77 1015.4
20260831064132 27 165 0.0 3.2 0.00 0.00 0.00 76 1015.5
20260831062631 28 165 0.0 8.0 0.00 0.00 0.00 76 1015.5
20260831061132 28 165 3.2 11.3 0.00 0.00 0.00 75 1015.5
20260831055632 28 169 3.2 11.3 0.00 0.00 0.00 75 1015.6
20260831054132 28 176 4.8 17.7 0.00 0.00 0.00 74 1015.5
20260831052632 28 154 3.2 14.5 0.00 0.00 0.00 73 1015.5
20260831052530 28 183 1.6 11.3 0.00 0.00 0.00 72 1015.4
20260831045630 28 148 3.2 14.5 0.00 0.00 0.00 71 1015.2
20260831044130 28 137 4.8 17.7 0.00 0.00 0.00 70 1015.2
20260831042631 28 162 3.2 11.3 0.00 0.00 0.00 69 1015.1
20260831041131 28 165 1.6 11.3 0.00 0.00 0.00 69 1015.0
20260831041007 29 168 3.2 8.0 0.00 0.00 0.00 67 1014.9
20260831034131 29 144 3.2 8.0 0.00 0.00 0.00 66 1014.8
20260831032630 30 151 4.8 14.5 0.00 0.00 0.00 64 1014.8
20260831031130 30 152 8.0 20.9 0.00 0.00 0.00 63 1014.6
20260831025629 30 137 4.8 17.7 0.00 0.00 0.00 61 1014.3
20260831024129 30 157 3.2 20.9 0.00 0.00 0.00 58 1014.2
20260831022630 30 151 4.8 11.3 0.00 0.00 0.00 57 1013.9
20260831021128 31 165 3.2 11.3 0.00 0.00 0.00 56 1013.7
20260831015628 31 169 3.2 11.3 0.00 0.00 0.00 54 1013.6
20260831014825 31 145 3.2 17.7 0.00 0.00 0.00 52 1013.4
20260831013335 32 158 8.0 22.5 0.00 0.00 0.00 50 1013.4
20260831011824 32 169 6.4 20.9 0.00 0.00 0.00 48 1013.5
20260831005627 32 154 14.5 29.0 0.00 0.00 0.00 46 1013.4
20260831004127 33 154 11.3 32.2 0.00 0.00 0.00 46 1013.2
20260831002628 33 178 16.1 29.0 0.00 0.00 0.00 46 1013.2
20260831001126 34 217 11.3 22.5 0.00 0.00 0.00 45 1013.1
20260830235625 34 121 8.0 22.5 0.00 0.00 0.00 44 1013.1
20260830234125 35 149 12.9 22.5 0.00 0.00 0.00 42 1013.0
20260830232627 35 109 4.8 25.7 0.00 0.00 0.00 41 1013.0
20260830231125 35 162 3.2 14.5 0.00 0.00 0.00 41 1013.0
20260830225625 35 114 4.8 17.7 0.00 0.00 0.00 42 1013.0
20260830224124 35 161 3.2 14.5 0.00 0.00 0.00 43 1013.1
20260830222624 35 171 6.4 11.3 0.00 0.00 0.00 44 1013.1
20260830221124 35 114 6.4 14.5 0.00 0.00 0.00 44 1013.2
20260830220318 35 155 11.3 29.0 0.00 0.00 0.00 42 1013.2
20260830214123 35 255 8.0 22.5 0.00 0.00 0.00 41 1013.2
20260830212622 35 159 4.8 17.7 0.00 0.00 0.00 41 1013.4
20260830211122 36 166 6.4 17.7 0.00 0.00 0.00 42 1013.6
20260830205622 36 99 4.8 29.0 0.00 0.00 0.00 42 1013.9
20260830204819 36 49 3.2 20.9 0.00 0.00 0.00 41 1014.1
20260830202621 36 206 4.8 20.9 0.00 0.00 0.00 40 1014.2
20260830201817 36 141 9.7 17.7 0.00 0.00 0.00 41 1014.5
20260830195621 36 80 4.8 25.7 0.00 0.00 0.00 40 1014.6
20260830194120 36 6 6.4 22.5 0.00 0.00 0.00 41 1014.9
20260830192620 35 186 3.2 29.0 0.00 0.00 0.00 45 1015.2
20260830191120 35 176 16.1 29.0 0.00 0.00 0.00 44 1015.5
20260830185620 36 131 8.0 17.7 0.00 0.00 0.00 42 1015.7
20260830184824 35 94 4.8 17.7 0.00 0.00 0.00 46 1015.7
20260830182618 35 145 8.0 22.5 0.00 0.00 0.00 45 1016.1
20260830181118 35 182 6.4 17.7 0.00 0.00 0.00 47 1016.5
20260830180314 34 63 4.8 17.7 0.00 0.00 0.00 49 1016.6
20260830174118 34 117 8.0 17.7 0.00 0.00 0.00 49 1016.9
20260830172617 33 252 3.2 22.5 0.00 0.00 0.00 53 1017.1
20260830171117 33 271 3.2 14.5 0.00 0.00 0.00 55 1017.2
20260830165616 33 118 8.0 14.5 0.00 0.00 0.00 54 1017.3
20260830164117 33 247 8.0 14.5 0.00 0.00 0.00 59 1017.3
20260830162615 32 313 3.2 14.5 0.00 0.00 0.00 63 1017.4
20260830161116 32 314 4.8 11.3 0.00 0.00 0.00 62 1017.3
20260830155616 31 168 3.2 14.5 0.00 0.00 0.00 64 1017.4
20260830154115 31 166 6.4 14.5 0.00 0.00 0.00 66 1017.4
20260830152615 30 214 3.2 11.3 0.00 0.00 0.00 69 1017.5
20260830151115 29 252 1.6 14.5 0.00 0.00 0.00 71 1017.4
20260830145614 29 252 4.8 14.5 0.00 0.00 0.00 74 1017.3
20260830144114 29 252 4.8 11.3 0.00 0.00 0.00 75 1017.4
20260830142614 29 137 3.2 14.5 0.00 0.00 0.00 76 1017.4
20260830141113 28 255 1.6 14.5 0.00 0.00 0.00 79 1017.4
20260830135613 27 220 4.8 14.5 0.00 0.00 0.00 81 1017.3
20260830134819 27 186 1.6 8.0 0.00 0.00 0.00 84 1017.1
20260830132612 26 176 0.0 4.8 0.00 0.00 0.00 86 1017.1
20260830131112 26 176 3.2 4.8 0.00 0.00 0.00 87 1017.1
20260830130321 25 176 1.6 3.2 0.00 0.00 0.00 88 1016.9